[[{"header":{"parameterUnit":"m.s-1","parameterCategory":1,"la1":30.2991,"la2":30.254,"lo1":-89.0895,"lo2":-89.0444,"dy":0.0017,"dx":0.0017,"nx":28,"ny":28,"refTime":"2024-04-24T03:00:00:Z","depth":0,"parameterNumber":2,"parameterNumberName":"U-component_of_WINDS"},"data":[0,0,0,0,0,0,0,0,0,0,0,0,0,0,0,0,0,0,0,0,0,0,0,0,0,0,0,0,0,0,0,0,0,0,0,0,0,0,0,0,0,0,0,0,0,0,0,0,0,0,0,0,0,0,0,0,0,0,0.2773,0.2773,0,0.2793,0.2793,0.2794,0.2791,0.2791,0.2791,0.279,0.2809,0.281,0.2811,0,0,0,0,0,0,0,0,0,0,0,0,0,0.2731,0.2731,0.2773,0.2773,0.2774,0.2793,0.2793,0.2794,0.2791,0.2791,0.2791,0.279,0.2809,0.281,0.2811,0,0,0,0,0,0,0,0,0,0,0,0,0,0.275,0.2732,0.2773,0.2775,0.2775,0.2793,0.2793,0.2794,0.2792,0.2791,0.2791,0.279,0.2809,0.281,0.2811,0.2827,0,0,0.2814,0.2815,0,0,0,0,0,0,0,0,0.2749,0.2751,0.2774,0.2775,0.2775,0.2789,0.2785,0.2805,0.2792,0.2785,0.279,0.279,0.2803,0.2804,0.2809,0.2828,0.2829,0.2815,0.2815,0.2816,0.2816,0,0,0,0,0,0,0,0.2747,0.275,0.2781,0.2775,0.2775,0.2774,0.2776,0.2789,0.2796,0.2786,0.2786,0.2788,0.2803,0.2808,0.281,0.2829,0.2815,0.2816,0.2816,0.2817,0.2862,0.2863,0,0,0,0,0,0,0.2746,0.2749,0.278,0.2782,0.2761,0.2775,0.2778,0.2785,0.2796,0.2797,0.2789,0.2788,0.2806,0.2808,0.281,0.283,0.2816,0.2817,0.2818,0.2862,0.2862,0.2863,0,0,0,0,0,0,0.2745,0.2749,0.278,0.2765,0.2769,0.2776,0.2785,0.2786,0.2791,0.2798,0.2799,0.2793,0.2806,0.2809,0.2823,0.283,0.2817,0.2818,0.2861,0.2862,0.2863,0.287,0,0,0,0,0,0,0.2744,0.2748,0.2755,0.2766,0.277,0.2793,0.2785,0.2787,0.2793,0.2793,0.2802,0.2803,0.2806,0.2821,0.2824,0.2832,0.2819,0.2861,0.2862,0.2863,0.2869,0.287,0.2872,0,0,0,0,0,0.2742,0.2756,0.2756,0.2759,0.2779,0.2793,0.2796,0.2799,0.2794,0.28,0.2805,0.2803,0.2829,0.2823,0.2826,0.2834,0.286,0.2861,0.2862,0.2868,0.287,0.2872,0,0,0,0,0,0,0.2746,0.2758,0.2757,0.2775,0.2783,0.2793,0.2801,0.2801,0.281,0.2809,0.2812,0.2814,0.2828,0.2833,0.2826,0.285,0.2844,0.2846,0.2847,0.2849,0.2851,0.2849,0.282,0,0,0,0,0,0.2749,0.276,0.277,0.2784,0.2789,0.2794,0.2801,0.2802,0.281,0.2814,0.2819,0.2827,0.2837,0.2843,0.2853,0.2869,0.2871,0.2876,0.2878,0.2879,0.2881,0.2889,0.2891,0.2867,0.2867,0.2867,0,0,0.2755,0.2763,0.277,0.2785,0.2792,0.2803,0.2797,0.2809,0.2817,0.2815,0.283,0.2834,0.2843,0.2858,0.2865,0.2862,0.2888,0.2881,0.2882,0.2882,0.289,0.2893,0.2895,0.2868,0.2867,0.2867,0,0,0.2772,0.2779,0.2792,0.2799,0.2809,0.2812,0.2815,0.2825,0.2828,0.2843,0.2841,0.285,0.2868,0.2874,0.2879,0.2897,0.2896,0.29,0.2909,0.2917,0.2919,0.292,0.2926,0.2928,0.2902,0.2902,0.2902,0,0.2778,0.2795,0.2798,0.281,0.2817,0.2816,0.2829,0.2835,0.2848,0.2852,0.2848,0.2869,0.2875,0.2892,0.2896,0.2901,0.2904,0.2899,0.2918,0.292,0.2921,0.2927,0.2929,0.2902,0.2902,0.2902,0.2902,0,0.2802,0.2813,0.2822,0.2835,0.2842,0.2855,0.2859,0.2866,0.2867,0.2871,0.2885,0.2892,0.2902,0.2906,0.2907,0.2923,0.2921,0.2918,0.2911,0.2924,0.2929,0.2932,0.2903,0.2903,0.2903,0.2902,0,0,0.2821,0.2835,0.2838,0.2844,0.2855,0.2864,0.2875,0.2886,0.2892,0.29,0.291,0.2924,0.2921,0.2927,0.2929,0.2936,0.2949,0.2932,0.2932,0.2934,0.2966,0.2968,0.297,0.2948,0.2948,0.2949,0.2965,0,0.2838,0.286,0.2863,0.2882,0.2892,0.2892,0.2902,0.2909,0.2913,0.2921,0.2925,0.2935,0.2931,0.2935,0.2942,0.2946,0.2955,0.2945,0.2956,0.2956,0.2953,0.2973,0.2975,0.299,0.2967,0.2967,0.2968,0,0.2861,0.2871,0.2891,0.29,0.2904,0.2913,0.2923,0.2932,0.294,0.2942,0.2948,0.2949,0.296,0.2953,0.2969,0.2961,0.2966,0.2969,0.2969,0.297,0.2962,0.2974,0.2995,0.2997,0.2971,0.2971,0.2971,0,0.2873,0.289,0.2904,0.2909,0.292,0.2926,0.2931,0.2939,0.2945,0.2953,0.2957,0.2967,0.2972,0.2979,0.2981,0.2976,0.2996,0.299,0.2997,0.2997,0.3001,0.3001,0.3023,0.3005,0.3005,0.3005,0.3005,0,0.2891,0.2903,0.291,0.2918,0.2931,0.2934,0.2947,0.2951,0.2958,0.2967,0.2967,0.2975,0.2978,0.2987,0.2989,0.3,0.3003,0.3004,0.3004,0.3004,0.3004,0.3007,0.3005,0.3006,0.3005,0.3005,0.3005,0,0.2906,0.2911,0.2926,0.2935,0.2938,0.2947,0.2955,0.2962,0.2966,0.2977,0.298,0.2985,0.2995,0.2998,0.301,0.3011,0.3025,0.3025,0.3022,0.3022,0.3029,0.3028,0.3054,0.3057,0.3038,0.3038,0.3038,0,0.2917,0.2927,0.2937,0.2943,0.2948,0.2958,0.2964,0.2968,0.2974,0.2984,0.299,0.3,0.3008,0.3024,0.3028,0.3037,0.3036,0.3045,0.3038,0.3037,0.3036,0.3035,0.3036,0.3046,0.3046,0.3046,0.3046,0,0.2937,0.2939,0.2948,0.2958,0.2966,0.2974,0.2982,0.2986,0.2991,0.2998,0.3008,0.3014,0.3026,0.3036,0.3045,0.3049,0.3048,0.3048,0.3051,0.305,0.3048,0.3048,0.3025,0.3048,0.3048,0.3047,0.3047,0.3047,0.295,0.2958,0.2966,0.2976,0.2983,0.299,0.2997,0.3002,0.3011,0.3021,0.3023,0.3033,0.304,0.3052,0.3057,0.3065,0.3063,0.3066,0.3066,0.3067,0.3067,0.3047,0.3067,0.3067,0.3067,0.3067,0.3066,0,0.2968,0.2974,0.2983,0.2994,0.3002,0.3001,0.301,0.3016,0.3026,0.3033,0.3041,0.3052,0.3061,0.3066,0.3075,0.3081,0.308,0.3083,0.3082,0.3083,0.3069,0.3066,0.3083,0.3083,0.3083,0.3083,0.3083,0.3083,0.2979,0.2992,0.2995,0.3011,0.3016,0.3027,0.3032,0.3038,0.3044,0.3056,0.3064,0.3068,0.3074,0.3083,0.3091,0.3092,0.3095,0.3098,0.3099,0.3086,0.3084,0.3082,0.308,0.3099,0.3099,0.3112,0.3112,0.3112]},{"header":{"parameterUnit":"m.s-1","parameterCategory":1,"la1":30.2991,"la2":30.254,"lo1":-89.0895,"lo2":-89.0444,"dy":0.0017,"dx":0.0017,"nx":28,"ny":28,"refTime":"2024-04-24T03:00:00:Z","depth":0,"parameterNumber":3,"parameterNumberName":"V-component_of_WINDS"},"data":[0,0,0,0,0,0,0,0,0,0,0,0,0,0,0,0,0,0,0,0,0,0,0,0,0,0,0,0,0,0,0,0,0,0,0,0,0,0,0,0,0,0,0,0,0,0,0,0,0,0,0,0,0,0,0,0,0,0,0.4874,0.4875,0,0.4928,0.4928,0.4929,0.4934,0.4934,0.4933,0.4933,0.4986,0.4988,0.499,0,0,0,0,0,0,0,0,0,0,0,0,0,0.4774,0.4776,0.4874,0.4875,0.4875,0.4928,0.4928,0.4929,0.4934,0.4934,0.4933,0.4932,0.4985,0.4988,0.499,0,0,0,0,0,0,0,0,0,0,0,0,0,0.4822,0.4777,0.4874,0.4884,0.4886,0.4927,0.4928,0.4929,0.4934,0.4934,0.4933,0.4932,0.4985,0.4987,0.499,0.5025,0,0,0.4999,0.5001,0,0,0,0,0,0,0,0,0.4819,0.4825,0.4882,0.4884,0.4885,0.4923,0.4913,0.4961,0.4935,0.4916,0.4933,0.4932,0.4966,0.497,0.4982,0.5027,0.503,0.5,0.5001,0.5003,0.5003,0,0,0,0,0,0,0,0.4816,0.4823,0.4895,0.4883,0.4885,0.4886,0.4892,0.4922,0.4945,0.4917,0.4918,0.4924,0.4967,0.4979,0.4983,0.503,0.4999,0.5002,0.5004,0.5005,0.5107,0.5108,0,0,0,0,0,0,0.4811,0.482,0.4893,0.4897,0.485,0.4888,0.4895,0.4912,0.4944,0.4949,0.4925,0.4924,0.4975,0.498,0.4985,0.5028,0.5002,0.5005,0.5007,0.5106,0.5107,0.5108,0,0,0,0,0,0,0.4809,0.4817,0.4891,0.4859,0.4868,0.4891,0.491,0.4914,0.4926,0.495,0.4954,0.4934,0.4974,0.4981,0.5015,0.503,0.5007,0.5009,0.5105,0.5106,0.5108,0.5114,0,0,0,0,0,0,0.4806,0.4816,0.483,0.4859,0.487,0.4921,0.4911,0.4915,0.4931,0.4931,0.496,0.4964,0.4974,0.5011,0.5018,0.5034,0.5011,0.5104,0.5105,0.5107,0.5113,0.5116,0.5118,0,0,0,0,0,0.4802,0.483,0.4831,0.484,0.4888,0.4922,0.4928,0.494,0.4933,0.4947,0.4962,0.4963,0.5027,0.5014,0.5022,0.5039,0.5103,0.5105,0.5107,0.5112,0.5115,0.5118,0,0,0,0,0,0,0.4802,0.4834,0.4835,0.4873,0.4895,0.4923,0.4941,0.4943,0.4967,0.4966,0.4979,0.4986,0.5019,0.5032,0.5017,0.5074,0.5064,0.5068,0.5065,0.5068,0.5071,0.5067,0.5014,0,0,0,0,0,0.4806,0.4831,0.4858,0.4888,0.4899,0.4918,0.4933,0.494,0.4963,0.4972,0.499,0.5012,0.5037,0.5053,0.5078,0.5114,0.5121,0.513,0.5132,0.5135,0.5138,0.5159,0.5163,0.5115,0.5115,0.5115,0,0,0.4815,0.4835,0.4851,0.4889,0.4906,0.4932,0.4926,0.4953,0.4972,0.4976,0.501,0.5023,0.5048,0.5084,0.5101,0.5096,0.5153,0.5137,0.5139,0.5141,0.5161,0.5166,0.517,0.5117,0.5116,0.5116,0,0,0.4845,0.4863,0.489,0.4908,0.4935,0.4948,0.4954,0.4982,0.4991,0.5025,0.5029,0.5051,0.5094,0.5112,0.5127,0.5163,0.5164,0.517,0.5185,0.5204,0.5208,0.5212,0.5225,0.523,0.5173,0.5173,0.5173,0,0.4853,0.4892,0.4904,0.4932,0.4948,0.4954,0.4982,0.4998,0.5031,0.5042,0.5037,0.5091,0.5108,0.5148,0.5157,0.5168,0.5176,0.5167,0.5207,0.521,0.5214,0.5227,0.5231,0.5174,0.5174,0.5174,0.5174,0,0.49,0.4927,0.4946,0.4979,0.4998,0.5025,0.5041,0.5058,0.5064,0.5077,0.5111,0.5132,0.516,0.517,0.5176,0.5211,0.5207,0.5204,0.5194,0.5219,0.5231,0.5236,0.5175,0.5174,0.5174,0.5174,0,0,0.4932,0.4971,0.4978,0.4993,0.5023,0.5044,0.5071,0.51,0.5115,0.5137,0.516,0.5196,0.5194,0.521,0.5218,0.5235,0.5263,0.523,0.523,0.5236,0.5303,0.5306,0.5312,0.5264,0.5265,0.5265,0.5301,0,0.4966,0.5016,0.5027,0.507,0.5095,0.5101,0.5124,0.5145,0.5157,0.518,0.5193,0.5219,0.5213,0.5223,0.5241,0.5256,0.5276,0.5253,0.5285,0.5286,0.528,0.5318,0.5321,0.5354,0.5306,0.5307,0.5307,0,0.5012,0.5036,0.5082,0.5108,0.5119,0.5141,0.5168,0.519,0.5213,0.5221,0.5239,0.5245,0.5273,0.5261,0.53,0.5284,0.5298,0.5307,0.5308,0.5313,0.5299,0.5324,0.5365,0.537,0.5315,0.5314,0.5314,0,0.5031,0.5075,0.5108,0.5121,0.5152,0.5167,0.5181,0.5204,0.522,0.5244,0.5254,0.528,0.5295,0.5315,0.5327,0.5317,0.5365,0.5354,0.5372,0.5372,0.5383,0.5382,0.5428,0.539,0.539,0.539,0.539,0,0.5068,0.5096,0.5117,0.5138,0.5169,0.5181,0.5212,0.5225,0.5245,0.5268,0.5273,0.5294,0.5309,0.5332,0.5341,0.5373,0.5379,0.5386,0.5388,0.5386,0.5385,0.5395,0.5394,0.5392,0.5391,0.5391,0.5391,0,0.5096,0.5111,0.5147,0.5174,0.5182,0.5204,0.5227,0.5246,0.5258,0.5287,0.5294,0.5314,0.5341,0.5355,0.5389,0.5395,0.543,0.5431,0.5423,0.5424,0.5442,0.544,0.5496,0.5504,0.5461,0.5461,0.5461,0,0.5119,0.514,0.517,0.5186,0.52,0.5225,0.5242,0.5255,0.5273,0.5301,0.5317,0.5345,0.5368,0.5411,0.5427,0.5453,0.5455,0.5472,0.5459,0.5456,0.5456,0.5455,0.5457,0.5475,0.5476,0.5476,0.5476,0,0.5158,0.5165,0.5189,0.5216,0.5237,0.5259,0.528,0.5293,0.5309,0.5328,0.5356,0.5374,0.5409,0.5436,0.5463,0.5477,0.5479,0.548,0.5486,0.5484,0.5479,0.5483,0.543,0.5479,0.5479,0.5479,0.5479,0.5478,0.5184,0.5204,0.5228,0.5255,0.5273,0.5293,0.5313,0.5327,0.5351,0.5381,0.5387,0.5417,0.5439,0.5476,0.549,0.5514,0.551,0.5518,0.552,0.5522,0.5523,0.5475,0.5518,0.5518,0.5518,0.5518,0.5518,0,0.5225,0.524,0.5265,0.5295,0.5317,0.5317,0.5341,0.5359,0.5385,0.5406,0.5429,0.5461,0.5488,0.5506,0.5533,0.5548,0.555,0.5555,0.5554,0.5557,0.5525,0.5518,0.5553,0.5553,0.5553,0.5553,0.5553,0.5553,0.5248,0.5281,0.5291,0.5332,0.5348,0.5378,0.5391,0.541,0.5426,0.5463,0.5485,0.5497,0.5517,0.5545,0.5569,0.5574,0.5584,0.5589,0.5593,0.5563,0.5559,0.5556,0.5549,0.5591,0.5591,0.5624,0.5624,0.5624]}]]